Regional Weather Roundup
Issued by NWS Grand Forks, ND

Home | Current Version | Previous Version | Graphics & Text | Print | Product List | Glossary On
Versions: 1 2 3 4 5 6 7 8 9 10 11 12 13 14 15 16 17 18 19 20 21 22 23 24 25 26 27 28 29 30 31 32 33 34 35 36 37 38 39 40 41 42 43 44 45 46 47 48 49 50
000
ASUS43 KFGF 062331
RWRFGF
PRAIRIE TO PINES  WEATHER ROUNDUP
NATIONAL WEATHER SERVICE EASTERN NORTH DAKOTA/GRAND FORKS ND
500 PM CST SAT FEB 06 2016

 **SATELLITE DATA USED TO AUGMENT SKY COVER AT AUTOMATED STATIONS**
 *****  WEATHER ACROSS EASTERN NORTH DAKOTA  *****

CITY           SKY/WX    TMP DP  RH WIND       PRES   REMARKS
GRAND FORKS    CLOUDY    37  32  82 S12       29.58F
GRAND FRKS AFB CLOUDY    39  31  74 SW13      29.57F
GRAND FRKS NWS   N/A     36 N/A N/A SW10        N/A
DEVILS LAKE    CLOUDY    39  31  72 W24G30    29.58R
FARGO          CLOUDY    38  33  82 SW12      29.66S
WAHPETON ARPT  CLOUDY    36  32  87 SW10      29.70S
$$

 ***** WEATHER ACROSS CENTRAL AND WESTERN NORTH DAKOTA  *****

CITY           SKY/WX    TMP DP  RH WIND       PRES   REMARKS
BISMARCK       CLOUDY    53  27  36 W17G29    29.68F
MINOT          CLEAR     50  26  39 W21G29    29.56F
JAMESTOWN      LGT RAIN  42  33  70 W22G29    29.68R
MINOT AFB      CLEAR     47  29  49 W25G33    29.54F
GARRISON         N/A     48  24  39 W21G33    29.62F
WILLISTON      CLEAR     46  27  47 W29G43    29.63F
DICKINSON      PTCLDY    45  18  34 W31G39    29.71R
HETTINGER      CLOUDY    47  20  34 W24G36    29.80R
$$

 *****  OTHER AIRPORT OBSERVATIONS IN OUR AREA  *****

CITY           SKY/WX    TMP DP  RH WIND       PRES   REMARKS
WALHALLA       FAIR      41  32  70 SW15G22   29.49S
GRAFTON AIRPOR FAIR      36  34  93 S12       29.56F
VALLEY CITY AR MIX PCPN  41  32  70 W22G29    29.68R
CANDO          CLOUDY    37  32  81 W17       29.54F
CAVALIER APRT  FAIR      36  32  87 S9        29.51F
GWINNER          N/A     37  36  93 SW17      29.74R
SHEYENNE NWR     N/A     38  32  79 SW12      29.95S
ROLLA          FAIR      37  32  81 SW17G24   29.48F
 ***** THE ABOVE OBSERVATIONS ARE NON NWS ARE NOT QUALITY
       CONTROLLED AND MAY MIS-REPORT RAIN FOR SNOW...
$$

  *****  WEATHER ACROSS NORTHERN MINNESOTA  *****

CITY           SKY/WX    TMP DP  RH WIND       PRES   REMARKS
FLAG ISLAND    LGT SNOW  28  27  93 SE10      29.59F WCI  19
WARROAD        CLOUDY    30  28  93 SE8       29.60F WCI  23
ROSEAU         CLOUDY    34  28  80 S13       29.58S WCI  25
HALLOCK        CLOUDY    32  30  93 SE15      29.54F WCI  22
THF RVR FALLS  CLOUDY    34  28  80 S13       29.60F WCI  25
BAUDETTE       CLOUDY    31  28  89 SE12      29.62F WCI  22
WASKISH        CLOUDY    34  27  75 SE5       29.63F
CROOKSTON      CLOUDY    36  30  80 SW16      29.62S
STEPHEN NDAWN    N/A     34  30  86 S14         N/A  WCI  24
GREENBUSH NDAW   N/A     34  30  86 S12         N/A
$$
  *****  WEATHER ACROSS CENTRAL AND WEST MINNESOTA  *****

CITY           SKY/WX    TMP DP  RH WIND       PRES   REMARKS
FOSSTON        CLOUDY    34  28  80 S14       29.62F WCI  24
BEMIDJI        CLOUDY    35  26  69 S8        29.64F
PARK RAPIDS    CLOUDY    36  27  69 S8        29.66F
ELBOW LAKE     RAIN      33  31  94 W16       29.74R WCI  23
WADENA         CLOUDY    36  28  75 S8        29.69S
DETROIT LAKES  PTCLDY    36  32  87 S12G17    29.67S
MOORHEAD       CLOUDY    36  34  93 SW9       29.69R
FERGUS FALLS   DRIZZLE   36  30  80 S13       29.72R
MORRIS MN      LGT RAIN  36  30  80 SW13      29.76R
STAPLES        CLOUDY    36  27  69 S7        29.71F
$$
  *****  WEATHER ELSEWHERE ACROSS MINNESOTA  *****

CITY           SKY/WX    TMP DP  RH WIND       PRES   REMARKS
DULUTH         CLOUDY    33  24  69 S15       29.76F WCI  23
INTRNTL FALLS  SNOW      31  27  85 SE8       29.66F VSB 1/2 WCI  23
ELY            LGT SNOW  30  25  80 S8        29.73F WCI  23
CLOQUET        CLOUDY    34  25  69 S7        29.75F
WHEATON        CLOUDY    37  34  87 S10       29.75F
BRAINERD       MOCLDY    36  26  67 S13       29.73F
HIBBING        FLURRIES  32  25  75 SE9       29.70F WCI  24
ALEXANDRIA     CLOUDY    36  28  73 SW16      29.74F
SAINT CLOUD    CLOUDY    35  26  69 S15       29.80F
MINNEAPOLIS    CLOUDY    35  26  69 S13       29.90F
$$

  *****  WEATHER ACROSS SOUTH DAKOTA  *****

CITY           SKY/WX    TMP DP  RH WIND       PRES   REMARKS
SIOUX FALLS    CLOUDY    35  25  66 SW13      29.87F
BROOKINGS      CLOUDY    34  28  79 S14       29.81F WCI  25
WATERTOWN      CLOUDY    36  28  73 S9        29.78S
HURON          CLOUDY    38  31  76 S12       29.80F
SISSETON         N/A     38  29  70 W20G30    29.71F
ABERDEEN       CLOUDY    41  32  70 S12       29.76F
MITCHELL       MOCLDY    41  33  73 S9        29.83F
PIERRE         MOCLDY    49  30  48 W15       29.80R
MOBRIDGE       MOCLDY    46  31  55 SE5       29.71
RAPID CITY     CLOUDY    48  27  44 N16       29.85R
$$

  *****  SOME WEATHER IN NEARBY STATES *****

CITY           SKY/WX    TMP DP  RH WIND       PRES   REMARKS
GLASGOW MT     MOCLDY    39  28  64 W26G36    29.81R
GREAT FALLS MT CLOUDY    39  16  39 W26G35    30.05R
CHEYENNE WY    MOSUNNY   43  18  36 NW7       30.07F
SCOTTSBLUFF NE MOSUNNY   42  24  49 W22G30    30.01S
OMAHA NE       CLOUDY    41  27  57 S16G23    30.06F
DES MOINES IA  PTCLDY    37  29  72 S10       30.10F
DAVENPORT IA   CLOUDY    38  32  79 W3        30.14F
CHICAGO IL     PTCLDY    39  28  64 SW8       30.14S
EAU CLAIRE WI  CLOUDY    33  23  66 S15       29.96F WCI  23
LA CROSSE WI   CLOUDY    32  24  72 S10       30.05F WCI  24
$$

  *****  SOME NATIONAL WEATHER *****

CITY           SKY/WX    TMP DP  RH WIND       PRES   REMARKS
LA GUARDIA NY  MOCLDY    40  18  41 SW7       30.29S
RALEIGH NC     PTCLDY    42  20  41 SE3       30.31F
ATLANTA GA     MOCLDY    47  18  31 E9        30.24S
NEW ORLEANS LA CLOUDY    54  20  26 NW3       30.26R
OKLAHOMA CITY  MOSUNNY   50  26  39 SW6       30.29F
ALBUQUERQUE NM SUNNY     49   8  19 SW6       30.33S
SALT LAKE CITY CLOUDY    37  25  61 NW6       30.46S
LOS ANGELES CA SUNNY     70  39  32 W10       30.15F
BOISE ID       PTSUNNY   44  32  62 NW8       30.42R
SEATTLE WA     CLOUDY    48  39  71 SW7       30.47R
$$

*** WEATHER ACROSS MANITOBA...SASKATCHEWAN AND ONTARIO ***
                ***ONTARIO***

CITY           SKY/WX    TMP DP  RH WIND       PRES   REMARKS
GERALDTON      PTCLDY     3  -8  60 NE6       29.97S WCI  -8
THUNDER BAY    LGT SNOW  21  19  93 E16       29.90F WCI   7
SIOUX LOOKOUT  MOCLDY    18  12  79 E7        29.75F WCI   8
TORONTO        MOCLDY    36  18  48 SW14G20   30.12R
BIG TROUT LK   CLEAR    -15 -22  70 E5        30.02F WCI -27
PICKLE LAKE    MOCLDY     1 -11  55 E7        29.89R WCI -11
DRYDEN         CLOUDY    23  18  80 E10       29.68F WCI  12
KENORA         LGT SNOW  25  21  86 SE13G21   29.61F DRFTSNOWWCI  13
$$
                *** MANITOBA***

CITY           SKY/WX    TMP DP  RH WIND       PRES   REMARKS
BRANDON        MOCLDY    37  32  81 SW10      29.40F
DAUPHIN        CLEAR     28  27  93 NE3       29.36F
ISLAND LAKE    CLOUDY     0  -8  71 E9G18     29.79F WCI -16
PILOT MOUND      N/A     36  32  87 SW10        N/A
THE PAS        FLURRIES  14   9  79 E9G18     29.47R WCI   2
THOMPSON       LGT SNOW  -6 -11  77 E10G17    29.73F DRFTSNOWWCI -23
WINNIPEG       MOCLDY    30  27  86 SE13      29.51F WCI  20
LYNN LAKE      LGT SNOW  -4  -8  84 E12G18    29.57R WCI -22
CHURCHILL      MOCLDY   -27 -36  62 E7        30.11S WCI -46
GILLAM         CLOUDY   -15 -24  64 E6        29.96S WCI -29
$$
                ***SASKATCHEWAN***

CITY           SKY/WX    TMP DP  RH WIND       PRES   REMARKS
ESTEVAN        CLOUDY    39  34  81 W23G36    29.53R
KINDERSLEY     MOCLDY    37  21  52 W17G24    29.72R
LLOYDMINSTER   MOCLDY    37  21  52 W33G48    29.56R
PRINCE ALBERT  MOCLDY    37  32  81 NW16      29.43R
REGINA         MOCLDY    37  34  87 W21G33    29.55R
YORKTON        CLEAR     37  32  81 W15G21    29.35R
N. BATTLEFORD  CLEAR     39  21  48 W33G45    29.57R
LA RONGE       LGT SNOW  16  14  93 NE7       29.40R WCI   6
SASKATOON      PTCLDY    39  25  56 NW31G39   29.54R
SWIFT CURRENT  MOCLDY    37  25  60 W26       29.73R
$$
NOTE: THESE ARE AUTOMATED STATIONS WITH LIMITED QUALITY CONTROL
      "FAIR" INDICATES FEW OR NO CLOUDS BELOW 12,000 FEET WITH NO
      SIGNIFICANT WEATHER AND/OR OBSTRUCTIONS TO VISIBILITY.
      SKY/WX - SKY CONDITION AND SIGNIFICANT WEATHER.
      TMP - AIR TEMPERATURE.    DP   - DEWPOINT TEMPERATURE.
      RH  - RELATIVE HUMIDITY.  PRES - PRESSURE.
      HX  - HEAT INDEX.         WCI  - WIND CHILL INDEX.
$



USA.gov is the U.S. government's official web portal to all federal, state and local government web resources and services.